Weather History for KOZW - November, 2014

Change the Weather History Date:

Monday, November 3, 2014

  Actual Average (KFNT) Record (KFNT)
Temperature  
Mean Temperature 46 °F 44 °F  
Max Temperature 57 °F 53 °F 75 °F (1990)
Min Temperature 37 °F 35 °F 12 °F (1951)
Degree Days  
Heating Degree Days 18 21  
Month to date heating degree days 63  
Since 1 July heating degree days 759  
Cooling Degree Days 0 0  
Month to date cooling degree days 0  
Year to date cooling degree days 531  
Moisture  
Dew Point 27 °F    
Average Humidity 43    
Maximum Humidity 58    
Minimum Humidity 32    
Precipitation  
Precipitation 0.00 in 0.10 in 0.85 in (2003)
Month to date precipitation 0.28  
Year to date precipitation 27.06  
Snow  
Snow 0.00 in 0.10 in 3.80 in (1966)
Month to date snowfall 0.1  
Since 1 July snowfall 0.5  
Since 1 September snowfall 0.5  
Snow Depth -    
Sea Level Pressure  
Sea Level Pressure 30.11 in    
Wind  
Wind Speed 6 mph (SSW)    
Max Wind Speed 16 mph    
Max Gust Speed 22 mph    
Visibility 10 miles    
Events      
T = Trace of Precipitation, MM = Missing Value Source: NWS Daily Summary

Daily Weather History Graph

Daily Weather History Graph

Search for Another Location

Airport or City:

Trip Planner

Search our weather history database for the weather conditions in past years. The results will help you decide how hot, cold, wet, or windy it might be!

Date:

Astronomy

Nov. 03, 2014 Rise Set
Actual Time 7:12 AM EST 5:26 PM EST
Civil Twilight 6:42 AM EST 5:55 PM EST
Nautical Twilight 6:09 AM EST 6:29 PM EST
Astronomical Twilight 5:36 AM EST 7:01 PM EST
Moon 3:39 PM EST (11/3) 3:16 AM EST (11/3)
Length of Visible Light 11h 12m
Length of Day
10h 13m
Waxing Gibbous, 87% of the Moon is Illuminated
Nov 3
Waxing Gibbous
Nov 6
Full
Nov 14
Last Quarter
Nov 22
New
Nov 29
First Quarter

Hourly Weather History & Observations

Time (EST) Temp. Windchill Dew Point Humidity Pressure Visibility Wind Dir Wind Speed Gust Speed Precip Events Conditions
12:15 AM 37.8 °F 34.2 °F 21.4 °F 52% 30.24 in 10.0 mi SSW 4.6 mph - N/A   Overcast
12:34 AM 39.2 °F 35.9 °F 21.6 °F 49% 30.24 in 10.0 mi SW 4.6 mph - N/A   Overcast
12:55 AM 39.2 °F 35.0 °F 21.0 °F 48% 30.24 in 10.0 mi SSW 5.8 mph - N/A   Mostly Cloudy
1:15 AM 38.5 °F 36.1 °F 21.0 °F 50% 30.23 in 10.0 mi SSW 3.5 mph - N/A   Scattered Clouds
1:34 AM 38.3 °F 35.9 °F 20.7 °F 49% 30.23 in 10.0 mi SSW 3.5 mph - N/A   Mostly Cloudy
1:55 AM 38.8 °F 35.4 °F 21.2 °F 49% 30.23 in 10.0 mi SSW 4.6 mph - N/A   Overcast
2:15 AM 39.4 °F 36.1 °F 20.8 °F 47% 30.23 in 10.0 mi SSW 4.6 mph - N/A   Overcast
2:34 AM 39.6 °F 36.3 °F 21.0 °F 48% 30.22 in 10.0 mi SSW 4.6 mph - N/A   Overcast
2:55 AM 40.3 °F 36.3 °F 20.7 °F 46% 30.21 in 10.0 mi SSW 5.8 mph - N/A   Overcast
3:15 AM 40.3 °F 36.3 °F 20.7 °F 46% 30.20 in 10.0 mi SSW 5.8 mph - N/A   Overcast
3:35 AM 40.3 °F 35.5 °F 20.8 °F 46% 30.20 in 10.0 mi SSW 6.9 mph - N/A   Overcast
3:55 AM 40.6 °F 37.5 °F 20.8 °F 45% 30.19 in 10.0 mi SSW 4.6 mph - N/A   Overcast
4:14 AM 41.0 °F 37.1 °F 20.8 °F 45% 30.19 in 10.0 mi SSW 5.8 mph - N/A   Overcast
4:35 AM 41.4 °F 38.4 °F 20.8 °F 44% 30.19 in 10.0 mi SSW 4.6 mph - N/A   Overcast
4:55 AM 41.4 °F 37.6 °F 20.7 °F 44% 30.18 in 10.0 mi SSW 5.8 mph - N/A   Overcast
5:14 AM 41.5 °F 38.6 °F 20.3 °F 43% 30.18 in 10.0 mi SSW 4.6 mph - N/A   Scattered Clouds
5:35 AM 41.4 °F 38.4 °F 20.5 °F 43% 30.18 in 10.0 mi South 4.6 mph - N/A   Scattered Clouds
5:55 AM 41.4 °F - 20.3 °F 43% 30.17 in 10.0 mi Calm Calm - N/A   Scattered Clouds
6:14 AM 41.0 °F 39.0 °F 20.3 °F 44% 30.16 in 10.0 mi South 3.5 mph - N/A   Scattered Clouds
6:35 AM 41.4 °F 38.4 °F 19.0 °F 41% 30.16 in 10.0 mi South 4.6 mph - N/A   Scattered Clouds
6:55 AM 41.9 °F 37.5 °F 18.1 °F 38% 30.15 in 10.0 mi SSW 6.9 mph - N/A   Scattered Clouds
7:15 AM 43.5 °F 39.4 °F 18.5 °F 37% 30.15 in 10.0 mi SSW 6.9 mph - N/A   Mostly Cloudy
7:35 AM 44.1 °F 40.1 °F 19.2 °F 37% 30.15 in 10.0 mi SSW 6.9 mph - N/A   Overcast
7:54 AM 44.2 °F 39.7 °F 19.4 °F 37% 30.15 in 10.0 mi SSW 8.1 mph - N/A   Mostly Cloudy
8:15 AM 44.8 °F 40.4 °F 19.8 °F 37% 30.15 in 10.0 mi SSW 8.1 mph - N/A   Clear
8:35 AM 45.1 °F 42.0 °F 20.5 °F 38% 30.15 in 10.0 mi SSW 5.8 mph - N/A   Clear
8:54 AM 46.8 °F - 21.0 °F 36% 30.15 in 10.0 mi SSW 9.2 mph - N/A   Clear
9:15 AM 48.2 °F - 21.6 °F 35% 30.14 in 10.0 mi SW 10.4 mph - N/A   Clear
9:35 AM 49.5 °F - 22.5 °F 35% 30.13 in 10.0 mi SW 10.4 mph - N/A   Clear
9:54 AM 50.5 °F - 23.4 °F 35% 30.13 in 10.0 mi SW 12.7 mph 21.9 mph N/A   Clear
10:15 AM 50.7 °F - 23.5 °F 35% 30.13 in 10.0 mi SW 13.8 mph 20.7 mph N/A   Clear
10:35 AM 52.7 °F - 24.8 °F 34% 30.12 in 10.0 mi SW 11.5 mph 19.6 mph N/A   Clear
10:54 AM 52.7 °F - 24.8 °F 34% 30.12 in 10.0 mi SW 16.1 mph 21.9 mph N/A   Clear
11:15 AM 53.6 °F - 25.5 °F 34% 30.11 in 10.0 mi SW 8.1 mph 18.4 mph N/A   Clear
11:35 AM 54.9 °F - 26.4 °F 33% 30.10 in 10.0 mi WSW 12.7 mph 19.6 mph N/A   Clear
11:54 AM 54.9 °F - 26.1 °F 33% 30.10 in 10.0 mi WSW 12.7 mph 17.3 mph N/A   Clear
12:15 PM 56.3 °F - 26.8 °F 32% 30.09 in 10.0 mi SW 10.4 mph 18.4 mph N/A   Clear
12:35 PM 55.8 °F - 27.0 °F 33% 30.08 in 10.0 mi SW 10.4 mph - N/A   Mostly Cloudy
12:54 PM 55.4 °F - 27.1 °F 34% 30.07 in 10.0 mi WSW 11.5 mph 17.3 mph N/A   Overcast
1:15 PM 55.6 °F - 27.9 °F 35% 30.06 in 10.0 mi SW 11.5 mph - N/A   Mostly Cloudy
1:34 PM 56.7 °F - 27.9 °F 33% 30.06 in 10.0 mi SW 11.5 mph 17.3 mph N/A   Scattered Clouds
1:55 PM 55.6 °F - 28.6 °F 36% 30.05 in 10.0 mi WSW 11.5 mph - N/A   Clear
2:15 PM 55.4 °F - 29.1 °F 37% 30.05 in 10.0 mi WSW 12.7 mph 16.1 mph N/A   Clear
2:34 PM 55.4 °F - 29.7 °F 37% 30.05 in 10.0 mi WSW 8.1 mph - N/A   Clear
2:55 PM 55.4 °F - 30.4 °F 38% 30.05 in 10.0 mi SW 10.4 mph - N/A   Clear
3:15 PM 55.6 °F - 31.3 °F 40% 30.05 in 10.0 mi WSW 5.8 mph - N/A   Clear
3:34 PM 56.3 °F - 31.6 °F 39% 30.04 in 10.0 mi WSW 12.7 mph - N/A   Clear
3:55 PM 55.0 °F - 32.0 °F 42% 30.04 in 10.0 mi WSW 8.1 mph - N/A   Clear
4:15 PM 55.0 °F - 32.2 °F 42% 30.04 in 10.0 mi SW 9.2 mph - N/A   Clear
4:34 PM 54.7 °F - 32.2 °F 42% 30.04 in 10.0 mi SW 6.9 mph - N/A   Clear
4:55 PM 54.0 °F - 32.5 °F 44% 30.04 in 10.0 mi SW 4.6 mph - N/A   Clear
5:15 PM 53.6 °F - 32.7 °F 45% 30.04 in 10.0 mi SSW 3.5 mph - N/A   Clear
5:34 PM 52.9 °F - 32.5 °F 46% 30.04 in 10.0 mi Calm Calm - N/A   Clear
5:55 PM 52.0 °F - 32.9 °F 48% 30.04 in 10.0 mi South 3.5 mph - N/A   Clear
6:15 PM 51.8 °F - 32.9 °F 49% 30.05 in 7.0 mi South 3.5 mph - N/A   Clear
6:35 PM 50.9 °F - 33.1 °F 51% 30.05 in 10.0 mi Calm Calm - N/A   Clear
6:55 PM 49.6 °F - 34.0 °F 55% 30.05 in 10.0 mi SSE 3.5 mph - N/A   Clear
7:14 PM 49.6 °F - 34.5 °F 56% 30.04 in 10.0 mi SSE 4.6 mph - N/A   Clear
7:35 PM 49.1 °F - 34.9 °F 58% 30.04 in 10.0 mi SSE 4.6 mph - N/A   Clear
7:55 PM 49.5 °F - 34.9 °F 57% 30.04 in 10.0 mi SSE 4.6 mph - N/A   Clear
8:14 PM 50.9 °F - 35.2 °F 55% 30.03 in 10.0 mi South 5.8 mph - N/A   Clear
8:35 PM 52.7 °F - 35.2 °F 52% 30.03 in 10.0 mi South 8.1 mph - N/A   Clear
8:55 PM 52.3 °F - 35.6 °F 53% 30.02 in 10.0 mi South 8.1 mph - N/A   Clear
9:14 PM 52.0 °F - 35.6 °F 54% 30.02 in 10.0 mi South 6.9 mph - N/A   Clear
9:35 PM 51.8 °F - 35.6 °F 54% 30.02 in 10.0 mi South 4.6 mph - N/A   Clear
9:55 PM 52.2 °F - 35.1 °F 52% 30.02 in 10.0 mi SSW 5.8 mph - N/A   Clear
10:14 PM 52.0 °F - 34.7 °F 52% 30.03 in 10.0 mi SSW 6.9 mph - N/A   Clear
10:35 PM 52.3 °F - 34.2 °F 50% 30.02 in 10.0 mi SSW 5.8 mph - N/A   Mostly Cloudy
10:55 PM 52.9 °F - 33.4 °F 48% 30.02 in 10.0 mi SSW 5.8 mph - N/A   Overcast
11:15 PM 53.1 °F - 32.4 °F 45% 30.01 in 10.0 mi SSW 6.9 mph - N/A   Overcast
11:35 PM 53.1 °F - 31.3 °F 43% 30.00 in 10.0 mi SSW 6.9 mph - N/A   Overcast
11:55 PM 54.7 °F - 29.3 °F 38% 30.00 in 10.0 mi SSW 9.2 mph - N/A   Overcast